Probability
0 0 0 0 0 0 0 0 0 0 0 0 0 0 0 0 0 0 0 0 0 1 2 4 5 5 5 5 6 7 6 5 4 4 4 4 4 5 5 4 3 3 3 3 4 4 3 2 3
0 0 0 0 0 0 0 0 0 0 0 0 0 0 0 0 0 0 0 0 0 1 2 3 4 4 4 4 6 7 6 5 5 5 5 5 5 4 4 3 2 2 3 3 4 4 3 3 3
0 0 0 0 0 0 0 0 0 0 0 0 0 0 0 0 0 0 0 0 0 1 2 3 3 3 3 4 4 5 5 5 4 4 4 4 5 4 3 2 1 2 3 4 5 5 4 3 3
0 0 0 0 0 0 0 0 0 0 0 0 0 0 0 0 0 0 0 0 1 1 2 3 4 4 3 3 3 4 5 4 3 3 3 4 4 4 3 2 2 2 3 3 4 5 5 3 2
0 0 0 0 0 0 0 0 0 0 0 0 0 0 0 0 0 0 0 1 2 2 3 5 6 5 4 3 3 4 4 5 4 4 4 4 5 4 3 2 2 2 3 3 3 4 4 3 3
0 0 0 0 0 0 0 0 0 0 0 0 0 0 0 0 0 0 0 1 2 3 4 6 6 6 5 4 3 4 5 5 6 6 6 6 6 5 3 2 3 3 3 3 3 3 4 4 4
0 0 0 0 0 0 0 0 1 1 0 0 0 0 1 1 0 0 0 0 1 3 4 6 6 6 5 4 4 5 5 6 6 6 6 6 5 4 3 2 2 2 2 2 2 3 3 4 5
0 0 0 0 0 0 0 1 2 1 0 0 1 1 2 1 0 0 0 0 1 3 5 6 5 5 5 6 6 5 5 5 5 4 4 5 4 3 2 1 1 1 1 1 1 1 1 3 4
0 0 0 0 0 0 0 1 1 1 0 0 1 2 2 1 0 0 0 0 1 3 5 6 6 5 5 6 6 5 4 3 3 2 2 3 2 1 1 1 1 0 0 0 0 0 0 1 2
0 0 0 0 0 0 0 0 0 0 0 0 1 1 1 0 0 0 0 0 2 5 6 6 6 6 6 5 4 3 2 1 1 0 0 1 1 0 0 0 1 1 0 0 0 0 0 0 1
0 0 0 0 0 0 0 0 0 0 0 0 0 0 0 0 0 0 0 0 2 4 5 6 6 7 7 6 3 2 1 0 0 0 0 0 0 0 0 0 0 0 0 0 0 0 0 0 0
0 0 0 0 0 0 0 0 0 0 0 0 0 0 0 0 0 0 0 0 0 2 4 5 6 8 8 6 4 2 1 0 0 0 0 0 0 0 0 0 0 0 0 0 0 0 0 0 0
0 0 0 0 0 0 0 0 0 0 0 0 0 0 0 0 0 0 0 0 0 1 3 5 6 7 7 6 4 2 1 0 0 0 0 0 0 0 0 0 0 0 0 0 0 0 0 0 0
0 0 0 0 0 0 0 0 0 0 0 0 0 0 0 0 0 0 0 0 0 1 3 4 5 6 6 6 4 3 1 0 0 0 0 0 0 0 0 0 0 0 0 0 0 0 0 0 0
0 0 0 0 0 0 0 0 0 0 0 0 0 0 0 0 0 0 0 1 1 1 2 3 4 5 6 6 4 3 2 1 0 0 0 0 0 0 0 0 0 0 0 0 0 0 0 0 0
0 0 0 0 0 0 0 0 0 0 0 0 0 0 0 0 0 0 0 1 2 2 3 3 3 4 5 5 4 3 2 1 0 0 0 0 0 0 0 0 0 0 0 0 0 0 0 0 0
0 0 0 0 0 0 0 0 0 0 0 0 0 0 0 0 0 0 0 1 2 3 3 3 3 3 4 4 3 2 1 0 0 0 0 0 0 0 0 0 0 0 0 0 0 0 0 0 0
0 0 0 0 0 0 0 0 0 0 0 0 0 0 0 0 0 0 0 1 2 3 3 3 3 3 3 3 3 1 0 0 0 0 0 0 0 0 0 0 0 0 0 0 0 0 0 0 0
0 0 0 0 0 0 0 0 0 0 0 0 0 0 0 0 0 0 0 0 1 2 3 3 3 3 3 3 3 1 0 0 0 0 0 0 0 0 0 0 0 0 0 0 0 0 0 0 0
0 0 0 0 0 0 0 0 0 0 0 0 0 0 0 0 0 0 0 0 0 1 3 3 3 3 3 3 3 2 1 0 0 0 0 0 0 0 0 0 0 0 0 0 0 0 0 0 0
0 0 0 0 0 0 0 0 0 0 0 0 0 0 0 0 0 0 0 0 0 1 2 3 3 3 3 3 3 2 1 0 0 0 0 0 0 0 0 0 0 0 0 0 0 0 0 0 0
0 0 0 0 0 0 0 0 0 0 0 0 0 0 0 0 0 0 0 0 0 0 1 3 3 3 3 3 3 3 1 0 0 0 0 0 0 0 0 0 0 0 0 0 0 0 0 0 0
0 0 0 0 0 0 0 0 0 0 0 0 0 0 0 0 0 0 0 0 0 0 1 2 3 3 3 3 3 3 2 1 1 1 0 0 0 0 0 0 0 0 0 0 0 0 0 0 0
0 0 0 0 0 0 0 0 0 0 0 0 0 0 0 0 0 0 0 0 0 0 0 1 2 3 3 3 3 3 3 3 2 2 1 1 0 0 0 0 0 0 0 0 0 0 0 0 0
0 0 0 0 0 0 0 0 0 0 0 0 0 0 0 0 0 0 0 0 0 0 0 0 1 3 3 3 3 3 3 3 3 3 3 2 1 0 0 0 0 0 0 0 0 0 0 0 0
0 0 0 0 0 0 0 0 0 0 0 0 0 0 0 0 0 0 0 0 0 0 0 0 1 2 3 3 3 3 3 3 3 3 3 3 2 1 0 0 0 0 0 0 0 0 0 0 0
0 0 0 0 0 0 0 0 0 0 0 0 0 0 0 0 0 0 0 0 0 0 0 0 1 2 3 3 3 3 3 3 3 3 3 3 2 1 0 0 0 0 0 0 0 0 0 0 0
0 0 0 0 0 0 0 0 0 0 0 0 0 0 0 0 0 0 0 0 0 0 0 0 1 2 3 3 3 3 3 3 3 3 3 3 2 1 0 0 0 0 0 0 0 0 0 0 0
0 0 0 0 0 0 0 0 0 0 0 0 0 0 0 0 0 0 0 0 0 0 0 0 0 1 2 3 3 3 3 3 3 3 3 3 2 1 0 0 0 0 0 0 0 0 0 0 0
0 0 0 0 0 0 0 0 0 0 0 0 0 0 0 0 0 0 0 0 0 0 0 0 0 0 1 3 3 3 3 3 3 3 3 3 2 1 0 0 0 0 0 0 0 0 0 0 0
Wind_Speed
7 3 2 4 7 6 1 2 1 1 1 1 1 2 4 3 2 2 1 2 2 2 2 3 5 6 6 6 7 7 8 8 8 8 8 8 8 8 8 8 8 7 7 6 6 6 6 6 7
2 2 5 6 6 2 3 2 2 2 2 1 3 3 3 2 2 2 2 3 2 2 3 4 6 6 7 7 8 8 8 8 8 8 8 8 8 9 8 8 8 7 8 7 6 6 6 6 6
1 4 5 5 4 5 4 2 2 1 1 1 2 3 2 2 2 1 2 2 3 4 3 4 6 6 7 7 8 8 8 8 8 8 8 8 9 9 9 8 8 7 7 7 7 7 7 6 6
3 5 6 5 2 3 3 1 2 2 3 3 2 2 2 3 2 1 1 2 4 4 4 4 6 6 7 8 8 8 8 8 9 9 8 9 9 9 9 8 8 8 7 7 7 7 7 7 6
5 5 5 2 2 2 1 1 1 1 1 2 2 2 1 3 3 3 3 3 4 3 4 4 7 7 7 7 8 8 8 8 9 8 9 9 9 10 9 8 8 8 7 7 7 7 7 6 6
5 5 4 3 3 2 1 1 1 1 1 1 2 2 0 2 3 3 3 3 3 3 4 4 6 7 7 7 7 8 8 8 8 8 8 8 9 9 9 9 8 8 7 7 7 7 7 7 6
5 4 3 4 2 2 1 1 2 1 1 1 1 2 0 2 2 3 3 4 4 4 4 4 4 4 6 7 7 8 8 8 8 8 9 9 9 9 9 9 8 8 7 7 7 6 6 6 6
4 5 3 2 3 3 1 1 1 1 1 1 1 3 1 1 2 3 4 4 4 4 4 4 5 5 4 4 7 8 9 9 9 9 10 10 9 9 9 8 8 8 7 7 7 7 6 6 6
4 4 3 4 5 3 1 2 1 2 2 2 2 1 0 3 4 4 4 4 4 4 4 4 4 4 4 3 6 7 7 8 8 7 9 8 5 5 6 7 8 8 8 7 7 7 7 6 5
4 3 4 2 3 2 1 1 1 2 2 1 2 2 2 3 4 4 3 2 2 3 3 3 3 3 4 3 3 3 4 4 5 4 5 4 4 4 5 8 9 9 9 8 8 7 7 5 3
3 3 1 0 1 2 1 1 0 2 0 2 2 1 2 3 3 3 2 1 1 2 3 3 3 3 3 2 2 2 2 3 4 5 4 3 3 3 4 3 4 5 6 4 5 5 3 3 3
3 1 1 0 1 1 1 1 1 0 1 0 2 3 3 3 2 2 2 2 2 3 3 3 2 3 3 2 2 2 2 2 3 3 4 3 2 3 3 2 3 3 3 3 3 2 3 3 3
1 0 2 2 3 2 3 1 1 1 1 2 3 4 4 3 1 2 2 2 2 3 3 3 3 3 2 2 2 3 2 2 2 3 3 3 2 2 2 2 2 3 2 2 3 3 3 3 3
2 2 1 2 2 2 2 1 1 2 1 3 3 3 2 2 1 2 2 2 2 2 2 3 3 3 3 3 2 2 2 2 2 3 3 3 2 2 2 2 2 2 2 2 2 2 2 2 2
2 3 3 2 1 0 2 2 2 1 2 2 1 1 1 1 2 1 1 1 1 2 2 2 3 4 3 3 3 2 2 2 3 3 3 4 3 2 2 1 2 2 2 2 2 2 2 2 3
3 3 1 3 1 1 2 4 2 1 2 0 1 0 1 1 1 1 1 2 2 2 2 3 3 3 3 3 3 2 2 2 2 2 3 4 4 3 2 2 2 2 2 2 1 2 2 2 3
3 0 2 3 1 1 1 5 2 1 2 2 2 1 1 0 1 1 2 2 2 2 2 2 3 3 2 3 2 2 2 2 2 2 2 3 4 4 2 2 2 2 2 2 2 2 1 2 2
3 2 2 3 2 1 2 5 4 2 3 3 2 2 1 1 1 1 1 1 2 2 2 2 2 2 2 2 2 2 2 2 2 2 2 3 3 4 3 2 2 2 2 2 2 2 2 1 1
3 2 3 3 2 1 4 6 5 3 3 3 3 2 2 2 1 1 1 2 2 3 2 2 2 2 2 1 1 1 1 1 2 2 3 3 4 4 3 2 2 2 2 2 2 1 2 2 2
1 1 3 3 2 1 3 7 5 3 3 4 5 4 3 1 1 1 1 1 1 2 2 2 2 2 2 1 1 0 1 1 1 2 3 3 3 3 3 2 2 2 2 2 2 2 1 1 2
1 3 4 4 3 1 3 6 3 3 2 2 2 3 2 2 2 1 1 1 1 1 2 2 2 2 2 2 1 1 2 2 2 2 2 3 3 3 2 3 2 2 1 1 2 1 1 1 1
3 3 3 2 1 3 0 5 6 3 3 3 3 2 2 1 1 1 1 1 1 1 1 1 1 2 2 1 1 1 1 1 2 2 2 3 3 2 2 2 2 2 1 1 1 1 1 1 1
2 1 1 1 1 2 1 2 8 2 4 5 4 3 2 2 2 2 2 1 1 1 1 1 1 1 2 1 1 0 1 1 2 2 3 3 3 2 2 2 2 2 1 1 2 2 1 1 1
2 3 3 3 2 3 4 4 8 4 5 4 3 3 3 2 2 2 1 0 1 1 1 1 1 2 2 1 1 1 1 2 2 3 3 3 2 2 2 2 2 2 1 1 2 2 2 1 1
2 4 3 4 3 6 2 4 10 5 3 3 3 3 3 2 2 2 1 1 2 2 2 2 2 2 2 2 1 1 1 1 2 2 3 3 2 2 3 3 2 2 2 2 2 1 1 1 1
2 5 5 4 5 5 2 7 8 3 2 1 2 2 2 2 1 2 2 1 1 2 2 2 2 2 2 2 2 2 2 1 2 2 2 3 2 3 3 3 3 3 2 2 1 1 1 1 1
4 3 3 4 0 3 6 7 8 1 1 1 1 0 1 2 2 2 1 1 1 1 2 2 2 2 2 2 3 2 2 2 2 3 3 3 3 3 3 3 3 3 2 2 2 1 2 1 1
2 5 4 3 2 4 6 5 5 4 4 3 2 2 3 2 2 2 2 2 2 2 2 2 1 2 2 2 2 2 2 2 2 2 3 3 4 3 3 3 3 3 3 2 2 2 2 2 2
2 2 3 3 3 3 5 8 4 5 4 4 5 4 3 3 3 2 2 2 2 2 2 2 2 2 2 2 2 3 3 3 2 3 3 4 3 4 4 3 3 3 3 3 2 2 2 2 2
3 4 5 4 4 3 3 9 2 3 3 3 4 3 3 2 2 2 2 1 1 1 2 2 3 3 3 3 2 3 3 3 3 3 4 4 3 3 3 3 3 3 3 2 2 2 2 2 2
Wind_Direction
351 7 62 55 56 55 199 248 224 319 344 347 29 86 113 114 136 165 343 14 35 40 11 41 53 57 57 58 63 63 59 59 57 55 53 52 52 50 51 53 53 55 59 62 65 73 80 84 84
346 26 53 59 87 107 258 242 215 226 182 77 41 58 67 55 31 43 1 349 40 59 35 44 52 57 57 60 63 60 57 57 57 57 53 50 49 49 50 50 50 54 56 55 57 64 71 76 83
25 50 77 76 112 176 212 212 201 2 35 67 58 45 68 23 13 1 332 8 60 56 36 41 55 60 59 63 60 58 54 56 58 58 53 49 48 48 49 47 46 49 52 53 55 57 60 66 72
66 48 57 78 174 219 206 208 152 89 25 43 82 45 26 15 343 340 31 64 74 57 38 43 56 61 60 60 59 56 54 56 58 57 53 49 47 46 46 45 45 46 49 49 51 53 54 57 61
57 76 72 69 231 248 254 255 147 95 12 23 75 80 354 4 30 63 70 72 82 62 41 44 53 57 58 59 58 55 55 58 58 56 53 49 46 43 41 40 40 45 48 47 47 50 53 52 53
59 70 101 194 227 255 282 295 101 66 41 20 81 105 144 22 47 57 62 59 69 66 46 43 48 48 48 52 54 52 56 57 55 53 52 49 45 41 38 35 34 38 46 46 44 45 48 48 45
102 102 152 179 197 254 226 61 104 109 56 331 123 115 313 19 43 61 62 59 56 55 48 37 32 37 40 43 48 49 49 53 52 49 46 44 42 40 36 33 32 34 40 42 41 41 40 41 42
115 107 128 179 182 223 183 62 56 84 145 2 86 135 218 252 81 73 65 62 56 50 44 34 27 29 29 34 45 44 44 45 45 43 40 39 37 35 33 28 28 32 33 35 36 36 35 34 39
87 88 187 197 184 199 122 82 34 48 92 38 39 122 180 120 103 84 64 49 43 39 32 31 29 25 25 33 39 41 41 37 38 37 35 35 31 28 26 21 26 29 28 29 32 31 30 29 32
84 145 210 205 176 157 82 107 152 81 52 33 24 27 64 104 108 101 88 65 37 18 17 24 29 25 28 31 32 32 34 29 30 31 28 28 26 25 25 22 24 24 24 26 29 31 26 21 12
100 166 184 8 94 121 101 47 52 129 221 213 202 181 104 96 91 94 87 75 29 8 13 9 18 25 29 24 28 25 28 27 28 29 25 26 27 23 24 19 15 14 18 20 18 20 16 12 6
99 14 86 341 19 53 99 84 33 84 220 207 153 137 112 92 91 101 90 49 32 31 14 6 18 27 26 33 35 25 24 29 27 19 21 25 25 22 15 17 5 9 8 10 11 12 12 9 8
103 61 27 48 54 68 74 47 122 354 341 64 87 90 104 108 84 73 87 72 52 32 10 1 18 29 26 35 37 33 16 23 23 23 18 22 25 17 12 3 6 7 4 6 7 7 9 8 5
116 89 18 2 31 35 86 324 80 285 38 77 82 89 111 116 97 64 55 53 38 22 4 7 25 27 37 38 41 37 21 21 26 21 13 15 17 11 7 4 6 2 354 355 6 360 2 360 0
89 62 14 351 10 45 78 358 260 234 102 81 76 100 91 80 76 72 49 52 35 10 3 14 37 36 39 39 35 40 34 31 30 18 15 15 14 2 358 4 5 350 343 355 14 16 16 9 3
60 65 346 308 24 5 96 258 254 176 132 160 252 168 106 46 55 39 32 42 34 22 17 15 27 35 35 36 36 35 37 36 27 15 14 11 8 6 1 6 1 346 347 359 8 24 24 14 2
43 151 245 291 359 55 153 250 251 224 183 231 245 228 193 89 19 17 15 27 35 28 24 26 28 32 30 33 34 37 39 38 22 14 15 4 2 2 360 356 354 354 2 5 5 17 20 17 360
219 219 246 257 300 31 249 261 273 258 223 234 238 243 228 219 279 333 23 23 36 33 30 36 30 29 27 31 34 32 36 29 24 18 11 4 360 2 3 0 356 4 13 12 11 14 19 19 351
175 188 250 264 286 300 254 265 265 261 239 235 233 228 231 243 272 31 43 36 41 31 24 21 25 16 25 20 14 10 355 347 4 6 10 7 2 1 5 2 358 1 13 1 359 6 24 8 349
142 233 272 296 327 285 280 277 263 237 227 221 218 219 221 252 339 12 17 27 27 20 11 14 14 9 13 8 323 298 305 313 330 347 359 2 359 360 3 359 350 354 11 13 8 8 16 345 356
236 216 242 273 326 359 328 298 264 262 242 249 227 214 207 207 228 267 325 337 3 358 350 351 356 3 2 11 17 17 17 2 358 350 347 346 349 357 356 355 351 351 16 5 348 354 3 296 323
248 248 241 265 316 294 56 287 276 256 269 244 236 219 213 217 232 273 277 302 301 306 319 338 355 2 2 23 39 47 16 335 315 314 315 326 339 347 347 354 352 345 348 336 315 349 319 275 291
206 11 348 282 200 304 289 239 281 286 260 251 237 229 231 229 226 257 263 255 290 303 313 320 343 0 9 23 26 43 354 318 311 318 323 324 327 336 340 344 344 336 329 321 316 325 325 287 272
144 53 32 35 66 272 232 200 275 240 230 246 241 233 236 244 249 261 282 329 346 347 348 344 357 358 7 15 359 335 313 317 329 331 320 320 321 317 324 326 316 308 304 300 299 300 303 290 300
84 87 18 349 341 255 219 217 252 250 235 225 238 237 239 240 238 253 264 327 339 343 345 345 353 349 350 349 333 311 300 296 296 303 299 307 314 311 309 310 298 292 287 277 276 279 290 294 295
173 142 160 214 245 280 255 237 253 256 274 270 241 213 219 236 255 253 245 258 306 324 330 334 339 334 332 328 315 305 300 289 282 288 291 294 293 290 293 293 292 291 290 284 264 264 270 289 283
141 163 165 138 261 284 269 280 294 229 287 308 306 194 238 259 269 263 269 284 286 297 303 302 317 323 323 317 315 302 298 297 299 301 301 294 293 293 297 295 289 283 281 271 259 260 269 264 264
127 142 115 132 183 272 289 274 261 265 258 263 252 242 258 279 277 276 274 280 285 285 297 306 299 292 299 304 304 314 302 297 298 298 292 289 292 293 294 294 294 289 282 272 255 257 259 254 263
118 122 128 135 169 189 275 274 237 232 239 237 245 239 239 247 251 257 260 268 285 304 310 318 316 311 311 309 307 312 304 300 297 286 282 285 289 293 290 285 287 287 280 270 256 255 251 245 260
187 182 156 170 224 200 227 270 274 233 256 243 253 254 260 252 253 256 259 276 306 313 316 313 310 306 304 302 301 297 300 300 295 290 289 289 288 287 283 283 281 281 280 274 261 262 255 244 250